Regional Weather Roundup
Issued by NWS Newport/Morehead, NC

Current Version | Previous Version | Text Only | Print | Product List | Glossary Off
Versions: 1 2 3 4 5 6 7 8 9 10 11 12 13 14 15 16 17 18 19 20 21 22 23 24 25 26 27 28 29 30 31 32 33 34 35 36 37 38 39 40 41 42 43 44 45 46 47 48 49 50
000 ASUS42 KMHX 210725 RWRMHX WEATHER ROUNDUP FOR EASTERN NORTH CAROLINA NATIONAL WEATHER SERVICE NEWPORT/MOREHEAD CITY NC 200 AM EST TUE NOV 21 2017 NOTE: "FAIR" INDICATES FEW OR NO CLOUDS BELOW 12,000 FEET WITH NO SIGNIFICANT WEATHER AND/OR OBSTRUCTIONS TO VISIBILITY NCZ015>017-031-032-045>047-102-103-210800- NORTH COAST CITY SKY/WX TMP DP RH WIND PRES REMARKS EDENTON CLOUDY 42 38 88 CALM 30.28S ELIZABETH CITY CLOUDY 39 37 92 S6 30.28S KITTY HAWK SUNNY 46 41 82 CALM 30.26S MANTEO CLEAR 37 36 96 CALM 30.28S $$ NCZ045>047-081-094-103-104-210800- CENTRAL COAST CITY SKY/WX TMP DP RH WIND PRES REMARKS FRISCO CLEAR 40 40 100 N5 30.27S $$ NCZ095-097-098-100-101-210800- SOUTHERN COAST CITY SKY/WX TMP DP RH WIND PRES REMARKS BEAUFORT CLOUDY 37 35 92 CALM 30.27S CEDAR ISLAND NOT AVBL JACKSONVILLE CLEAR 35 35 100 CALM 30.25F PINEY ISLAND NOT AVBL WILMINGTON PTCLDY 37 35 92 CALM 30.25F $$ NCZ011>013-027>030-043-044-078>080-089-090>093-098-210800- COASTAL PLAIN CITY SKY/WX TMP DP RH WIND PRES REMARKS AHOSKIE CLOUDY 29 28 96 CALM 30.26F CLINTON CLOUDY 33 32 98 CALM 30.26F ELIZABETHTOWN NOT AVBL GOLDSBORO CLOUDY 33 30 87 CALM 30.24S GREENVILLE PTCLDY 34 34 100 CALM 30.27S FOG HAVELOCK NOT AVBL KENANSVILLE PTCLDY 28 27 93 CALM 30.26S FOG KINSTON CLOUDY 32 31 96 CALM 30.27S NEW BERN CLOUDY 33 33 100 CALM 30.27F RICHLANDS CLEAR 30 28 92 CALM 30.26F ROCKY MOUNT CLOUDY 33 31 92 CALM 30.25F WASHINGTON CLOUDY 35 33 94 CALM 30.27S WHITEVILLE CLEAR 35 34 96 CALM 30.24S $$ AMZ130-135-150-152-154-156-158-170-250-252-270-ANZ085-086-088-633-658-670-210800- MARINE OBSERVATIONS STATION/POSITION TIME TEMP WIND PRES WAVE SWELL AIR SEA DIR/SP/G HT/PER HT/PER (UTC) (F) (DEG/KT/KT) (MB) (FT/S) (FT/S) CHESAPEAKE LIGHT NOT AVBL 64 E VA BEACH 0650 55 60 210/ 12/ 14 1025.2 2/ 6 2/ 6 DUCK 0700 49 59 190/ 8/ 8 1024.6 2 E DUCK 0700 61 N/A 1/ 7 OREGON INLET 0700 49 54 CALM / 1 1025.0 13E OREGON INLT 0648 62 N/A 2/ 6 2/ 6 HATTERAS CG 0700 51 58 30/ 2/ 3 1024.6 DIAMOND BUOY 0710 60 75 320/ 8/ 12 1025.1 CAPE LOOKOUT 0700 350/ 4/ 5 1024.8 BEAUFORT LAB 0700 45 59 20/ 3/ 4 1024.7 30 SE NEW RVR IN 0708 63 67 120/ 4/ 6 1024.2 30 SE NEW RVR IN 0700 67 N/A 2/ 9 27 SE WRIGHTSVLE 0708 63 68 170/ 4/ 8 1023.5 5 SE WRIGHTSVLE 0708 61 63 180/ 4/ 8 1023.9 225 S CAPE HAT 0650 69 76 100/ 14/ 17 1023.0 5/ 9 3/ 9 41 SE CHARLESTON 0710 69 73 140/ 14/ 17 1021.3 $$

USA.gov is the U.S. government's official web portal to all federal, state and local government web resources and services.